timestamp,wind_dir_avg,wind_spd_max_dir,wind_spd_avg,wind_spd_gust,battery_voltage,lat,long
2022-04-20 00:04:01+00:00,158.0,159.0,3.01,3.23,12.65,47.59359,-54.27349
2022-04-20 00:14:01+00:00,181.0,201.0,2.71,3.11,12.41,47.59359,-54.27349
2022-04-20 00:24:01+00:00,183.0,186.0,2.76,3.53,12.41,47.59359,-54.27349
2022-04-20 00:34:01+00:00,173.0,172.0,3.88,4.81,12.41,47.59359,-54.27349
2022-04-20 00:44:01+00:00,172.0,178.0,5.41,6.45,12.41,47.59359,-54.27349
2022-04-20 00:54:01+00:00,171.0,155.0,6.04,7.3,12.41,47.59359,-54.27349
2022-04-20 01:04:01+00:00,188.0,195.0,6.3,7.27,12.41,47.59359,-54.27349
2022-04-20 01:14:00+00:00,198.0,200.0,5.95,6.58,12.41,47.59359,-54.27349
2022-04-20 01:24:00+00:00,190.0,192.0,6.04,7.0,12.41,47.59359,-54.27349
2022-04-20 01:34:00+00:00,174.0,152.0,6.16,7.22,12.41,47.59359,-54.27349
2022-04-20 01:44:00+00:00,157.0,147.0,5.1,6.22,12.41,47.59359,-54.27349
2022-04-20 01:54:00+00:00,195.0,191.0,6.04,7.18,12.41,47.59359,-54.27349
2022-04-20 02:04:00+00:00,174.0,156.0,5.79,7.37,12.41,47.59359,-54.27349
2022-04-20 02:14:00+00:00,191.0,193.0,6.01,6.66,12.33,47.59359,-54.27349
2022-04-20 02:24:00+00:00,159.0,150.0,6.3,7.27,12.33,47.59359,-54.27349
2022-04-20 02:34:00+00:00,182.0,171.0,5.9,6.88,12.33,47.59359,-54.27349
2022-04-20 02:44:00+00:00,152.0,151.0,7.52,8.37,12.33,47.59359,-54.27349
2022-04-20 02:54:00+00:00,160.0,159.0,9.25,10.51,12.33,47.59359,-54.27349
2022-04-20 03:04:00+00:00,176.0,170.0,7.9,8.95,12.33,47.59359,-54.27349
2022-04-20 03:14:00+00:00,177.0,170.0,7.65,9.38,12.33,47.59359,-54.27349
2022-04-20 03:24:00+00:00,174.0,168.0,7.57,9.01,12.33,47.59359,-54.27349
2022-04-20 03:34:00+00:00,173.0,161.0,6.83,7.98,12.33,47.59359,-54.27349
2022-04-20 03:44:00+00:00,172.0,173.0,8.61,9.99,12.33,47.59359,-54.27349
2022-04-20 03:54:00+00:00,176.0,183.0,6.34,7.61,12.33,47.59359,-54.27349
2022-04-20 04:04:00+00:00,171.0,166.0,9.51,10.68,12.33,47.59359,-54.27349
2022-04-20 04:14:01+00:00,174.0,172.0,8.46,9.97,12.25,47.59359,-54.27349
2022-04-20 04:24:01+00:00,164.0,159.0,7.69,9.05,12.25,47.59359,-54.27349
2022-04-20 04:34:01+00:00,178.0,183.0,5.95,7.57,12.25,47.59359,-54.27349
2022-04-20 04:44:01+00:00,177.0,173.0,8.13,9.73,12.25,47.59359,-54.27349
2022-04-20 04:54:01+00:00,180.0,182.0,8.06,9.53,12.25,47.59359,-54.27349
2022-04-20 05:04:01+00:00,180.0,186.0,8.01,10.17,12.25,47.59359,-54.27349
2022-04-20 05:14:00+00:00,181.0,170.0,8.11,9.32,12.25,47.59359,-54.27349
2022-04-20 05:24:00+00:00,180.0,179.0,7.97,9.54,12.25,47.59359,-54.27349
2022-04-20 05:34:00+00:00,188.0,189.0,6.84,7.51,12.25,47.59359,-54.27349
2022-04-20 05:44:00+00:00,178.0,181.0,10.18,11.5,12.25,47.59359,-54.27349
2022-04-20 05:54:00+00:00,178.0,178.0,11.22,12.77,12.25,47.59359,-54.27349
2022-04-20 06:04:00+00:00,177.0,175.0,10.11,12.6,12.25,47.59359,-54.27349
2022-04-20 06:14:01+00:00,180.0,178.0,9.85,10.83,12.25,47.59359,-54.27349
2022-04-20 06:24:01+00:00,181.0,183.0,10.36,11.57,12.25,47.59359,-54.27349
2022-04-20 06:34:01+00:00,176.0,173.0,10.09,11.87,12.25,47.59359,-54.27349
2022-04-20 06:44:01+00:00,178.0,177.0,9.42,10.65,12.25,47.59359,-54.27349
2022-04-20 06:54:01+00:00,180.0,189.0,10.93,11.94,12.25,47.59359,-54.27349
2022-04-20 07:04:01+00:00,182.0,181.0,10.12,11.87,12.25,47.59359,-54.27349
2022-04-20 07:14:00+00:00,179.0,176.0,10.92,11.97,12.25,47.59359,-54.27349
2022-04-20 07:24:00+00:00,181.0,185.0,11.25,12.82,12.25,47.59359,-54.27349
2022-04-20 07:34:00+00:00,180.0,181.0,10.69,11.96,12.25,47.59359,-54.27349
2022-04-20 07:44:00+00:00,183.0,189.0,10.09,10.98,12.25,47.59359,-54.27349
2022-04-20 07:54:00+00:00,172.0,177.0,9.49,11.53,12.25,47.59359,-54.27349
2022-04-20 08:04:00+00:00,180.0,190.0,10.1,11.2,12.25,47.59359,-54.27349
2022-04-20 08:14:01+00:00,181.0,181.0,10.23,11.02,12.17,47.59359,-54.27349
2022-04-20 08:24:01+00:00,176.0,178.0,11.16,12.9,12.17,47.59359,-54.27349
2022-04-20 08:34:01+00:00,185.0,186.0,9.65,10.81,12.17,47.59359,-54.27349
2022-04-20 08:44:01+00:00,185.0,187.0,7.9,9.28,12.17,47.59359,-54.27349
2022-04-20 08:54:01+00:00,178.0,182.0,8.63,10.23,12.17,47.59359,-54.27349
2022-04-20 09:04:01+00:00,177.0,173.0,11.93,13.29,12.17,47.59359,-54.27349
2022-04-20 09:14:01+00:00,187.0,189.0,12.49,13.69,12.17,47.59359,-54.27349
2022-04-20 09:24:01+00:00,179.0,177.0,12.2,14.37,12.17,47.59359,-54.27349
2022-04-20 09:34:01+00:00,177.0,175.0,11.82,13.85,12.17,47.59359,-54.27349
2022-04-20 09:44:01+00:00,174.0,187.0,11.45,13.33,12.17,47.59359,-54.27349
2022-04-20 09:54:01+00:00,175.0,167.0,9.86,11.16,12.17,47.59359,-54.27349
2022-04-20 10:04:01+00:00,177.0,179.0,8.38,9.8,12.17,47.59359,-54.27349
2022-04-20 10:14:01+00:00,185.0,182.0,8.39,9.46,12.25,47.59359,-54.27349
2022-04-20 10:24:01+00:00,178.0,160.0,8.44,10.19,12.25,47.59359,-54.27349
2022-04-20 10:34:01+00:00,190.0,191.0,9.73,11.17,12.25,47.59359,-54.27349
2022-04-20 10:44:01+00:00,188.0,193.0,8.22,9.57,12.25,47.59359,-54.27349
2022-04-20 10:54:01+00:00,188.0,187.0,9.97,12.02,12.25,47.59359,-54.27349
2022-04-20 11:04:01+00:00,184.0,193.0,9.53,11.1,12.25,47.59359,-54.27349
2022-04-20 11:14:01+00:00,180.0,173.0,9.55,11.72,12.73,47.59359,-54.27349
2022-04-20 11:24:01+00:00,184.0,166.0,10.41,11.77,12.73,47.59359,-54.27349
2022-04-20 11:34:01+00:00,185.0,187.0,9.18,10.17,12.73,47.59359,-54.27349
2022-04-20 11:44:01+00:00,185.0,187.0,10.12,12.11,12.73,47.59359,-54.27349
2022-04-20 11:54:01+00:00,182.0,183.0,10.65,12.62,12.73,47.59359,-54.27349
2022-04-20 12:04:01+00:00,167.0,163.0,10.3,12.53,12.73,47.59359,-54.27349
2022-04-20 12:14:00+00:00,183.0,185.0,9.43,11.09,13.68,47.59359,-54.27349
2022-04-20 12:24:00+00:00,168.0,139.0,11.59,13.67,13.68,47.59359,-54.27349
2022-04-20 12:34:00+00:00,176.0,174.0,8.95,10.79,13.68,47.59359,-54.27349
2022-04-20 12:44:00+00:00,166.0,162.0,10.48,12.22,13.68,47.59359,-54.27349
2022-04-20 12:54:00+00:00,164.0,163.0,10.46,13.52,13.68,47.59359,-54.27349
2022-04-20 13:04:00+00:00,165.0,167.0,9.81,10.8,13.68,47.59359,-54.27349
2022-04-20 13:14:00+00:00,171.0,172.0,9.54,11.08,13.68,47.59359,-54.27349
2022-04-20 13:24:00+00:00,163.0,169.0,9.38,11.57,13.68,47.59359,-54.27349
2022-04-20 13:34:00+00:00,167.0,162.0,7.22,8.16,13.68,47.59359,-54.27349
2022-04-20 13:44:00+00:00,158.0,161.0,5.86,7.16,13.68,47.59359,-54.27349
2022-04-20 13:54:00+00:00,142.0,153.0,7.05,11.37,13.68,47.59359,-54.27349
2022-04-20 14:04:00+00:00,164.0,173.0,9.62,12.84,13.68,47.59359,-54.27349
2022-04-20 14:14:01+00:00,164.0,162.0,10.29,12.2,13.68,47.59359,-54.27349
2022-04-20 14:24:01+00:00,192.0,202.0,9.53,12.35,13.68,47.59359,-54.27349
2022-04-20 14:34:01+00:00,182.0,197.0,11.85,14.63,13.68,47.59359,-54.27349
2022-04-20 14:44:01+00:00,180.0,191.0,11.17,13.82,13.68,47.59359,-54.27349
2022-04-20 14:54:01+00:00,180.0,179.0,11.95,15.16,13.68,47.59359,-54.27349
2022-04-20 15:04:01+00:00,202.0,201.0,12.97,14.55,13.68,47.59359,-54.27349
2022-04-20 15:14:00+00:00,201.0,206.0,12.28,13.33,13.68,47.59359,-54.27349
2022-04-20 15:24:00+00:00,206.0,207.0,11.95,13.36,13.68,47.59359,-54.27349
2022-04-20 15:34:00+00:00,206.0,201.0,11.12,13.65,13.68,47.59359,-54.27349
2022-04-20 15:44:00+00:00,197.0,202.0,10.08,11.87,13.68,47.59359,-54.27349
2022-04-20 15:54:00+00:00,198.0,200.0,14.55,17.38,13.68,47.59359,-54.27349
2022-04-20 16:04:00+00:00,182.0,159.0,11.53,15.02,13.68,47.59359,-54.27349
2022-04-20 17:14:00+00:00,184.0,205.0,10.76,13.56,13.37,47.59359,-54.27349
2022-04-20 17:24:00+00:00,193.0,199.0,10.95,14.92,13.37,47.59359,-54.27349
2022-04-20 17:34:00+00:00,182.0,166.0,11.2,13.98,13.37,47.59359,-54.27349
2022-04-20 17:44:00+00:00,192.0,208.0,10.67,12.61,13.37,47.59359,-54.27349
2022-04-20 17:54:00+00:00,201.0,202.0,13.02,14.71,13.37,47.59359,-54.27349
2022-04-20 18:04:00+00:00,197.0,206.0,9.52,13.56,13.37,47.59359,-54.27349
2022-04-20 18:14:00+00:00,203.0,202.0,11.8,14.35,13.29,47.59359,-54.27349
2022-04-20 18:24:00+00:00,201.0,207.0,11.13,13.53,13.29,47.59359,-54.27349
2022-04-20 18:34:00+00:00,191.0,202.0,10.47,12.69,13.29,47.59359,-54.27349
2022-04-20 18:44:00+00:00,199.0,196.0,15.64,18.74,13.29,47.59359,-54.27349
2022-04-20 18:54:00+00:00,193.0,193.0,15.92,19.4,13.29,47.59359,-54.27349
2022-04-20 19:04:00+00:00,193.0,173.0,15.02,20.64,13.29,47.59359,-54.27349
2022-04-20 19:14:01+00:00,199.0,190.0,15.45,17.88,13.21,47.59359,-54.27349
2022-04-20 19:24:01+00:00,191.0,195.0,17.4,20.83,13.21,47.59359,-54.27349
2022-04-20 19:34:01+00:00,194.0,181.0,17.27,19.54,13.21,47.59359,-54.27349
2022-04-20 19:44:01+00:00,198.0,199.0,16.08,18.72,13.21,47.59359,-54.27349
2022-04-20 19:54:01+00:00,194.0,197.0,17.62,21.83,13.21,47.59359,-54.27349
2022-04-20 20:04:01+00:00,210.0,221.0,13.76,17.34,13.21,47.59359,-54.27349
2022-04-20 20:14:00+00:00,200.0,219.0,15.69,20.71,12.89,47.59359,-54.27349
2022-04-20 20:24:00+00:00,221.0,237.0,11.17,14.96,12.89,47.59359,-54.27349
2022-04-20 20:34:00+00:00,225.0,224.0,15.45,18.84,12.89,47.59359,-54.27349
2022-04-20 20:44:00+00:00,220.0,216.0,14.03,16.98,12.89,47.59359,-54.27349
2022-04-20 20:54:00+00:00,217.0,225.0,13.16,17.17,12.89,47.59359,-54.27349
2022-04-20 21:04:00+00:00,209.0,212.0,11.62,12.69,12.89,47.59359,-54.27349
2022-04-20 21:14:00+00:00,205.0,199.0,11.91,13.24,12.57,47.59359,-54.27349
2022-04-20 21:24:00+00:00,207.0,204.0,11.69,14.7,12.57,47.59359,-54.27349
2022-04-20 21:34:00+00:00,205.0,207.0,12.72,15.68,12.57,47.59359,-54.27349
2022-04-20 21:44:00+00:00,202.0,200.0,13.33,15.13,12.57,47.59359,-54.27349
2022-04-20 21:54:00+00:00,212.0,208.0,13.08,15.46,12.57,47.59359,-54.27349
2022-04-20 22:04:00+00:00,216.0,225.0,11.53,13.94,12.57,47.59359,-54.27349
2022-04-20 22:14:01+00:00,219.0,216.0,10.19,11.58,12.33,47.59359,-54.27349
2022-04-20 22:24:01+00:00,217.0,217.0,9.38,10.56,12.33,47.59359,-54.27349
2022-04-20 22:34:01+00:00,217.0,219.0,8.85,9.51,12.33,47.59359,-54.27349
2022-04-20 22:44:01+00:00,218.0,220.0,8.95,9.45,12.33,47.59359,-54.27349
2022-04-20 22:54:01+00:00,219.0,222.0,7.37,9.31,12.33,47.59359,-54.27349
2022-04-20 23:04:01+00:00,226.0,231.0,5.44,7.17,12.33,47.59359,-54.27349
2022-04-20 23:14:01+00:00,228.0,230.0,6.97,8.46,12.33,47.59359,-54.27349
2022-04-20 23:24:01+00:00,227.0,222.0,6.47,7.52,12.33,47.59359,-54.27349
2022-04-20 23:34:01+00:00,248.0,252.0,8.21,8.89,12.33,47.59359,-54.27349
2022-04-20 23:44:01+00:00,234.0,233.0,5.82,6.61,12.33,47.59359,-54.27349
2022-04-20 23:54:01+00:00,230.0,231.0,5.74,6.39,12.33,47.59359,-54.27349
